INTELSAT 20 (IS-20) (38740 NORAD) Tracking and Keplerian Element Data

This shows tracking and keplerian element data for the satellite.

Feedback or suggestion? Click here.




ElementValue
Catalog38740
NameINTELSAT 20 (IS-20)
Epoch Orbit3344
Epoch Day268.75478312
Epoch Year2021
RAAN173.5528
Inclination0.0116
Eccentricity0.0002004
Argument of Perigee6.8316
Mean Anonmoly164.6355
Mean Motion1.00271743
Decay Rate-2.8E-07
L11 38740U 12043A 21268.75478312 -.00000028 00000-0 00000-0 0 9999
L22 38740 0.0116 173.5528 0002004 6.8316 164.6355 1.00271743 33442

Live tracking and technical data element details for INTELSAT 20 (IS-20) (NORAD 38740). INTELSAT 20 (IS-20) can be tracked NOW for your location showing map with azimuth and elevation plus other details from your city location.

Track the satellite on the map from your city or location and see movement details for azimuth, elevation, latitude, longitude, range, height, and movement on the map or in text.







IsCatalogInMostPopularTable: catalog: 38740, numindb: 605
Update: records affected: 1



GetName: 38740 INTELSAT 20 (IS-20)

Hit Count: updated at: Mon, 27 Sep 2021 00:08:50 GMT